Change the Weather History Date:

Tuesday, February 18, 2014

  Actual Average Record
Temperature  
Mean Temperature 32 °F -  
Max Temperature 37 °F 28 °F 64 °F (1981)
Min Temperature 28 °F 15 °F -19 °F (1993)
Degree Days  
Heating Degree Days 32    
Moisture  
Dew Point 23 °F    
Average Humidity 66    
Maximum Humidity 80    
Minimum Humidity 52    
Precipitation  
Precipitation 0.00 in - - ()
Sea Level Pressure  
Sea Level Pressure 29.67 in    
Wind  
Wind Speed 14 mph (WSW)    
Max Wind Speed 21 mph    
Max Gust Speed -    
Visibility 10 miles    
Events      
Averages and records for this station are not official NWS values.
T = Trace of Precipitation, MM = Missing Value Source: NWS Daily Summary

Daily Weather History Graph

Daily Weather History Graph

Search for Another Location

Airport or City:

Trip Planner

Search our weather history database for the weather conditions in past years. The results will help you decide how hot, cold, wet, or windy it might be!

Date:

Astronomy

Feb. 18, 2014 Rise Set
Actual Time 7:16 AM CST 5:56 PM CST
Civil Twilight 6:47 AM CST 6:25 PM CST
Nautical Twilight 6:13 AM CST 6:59 PM CST
Astronomical Twilight 5:40 AM CST 7:32 PM CST
Moon 10:00 PM CST (2/18) 8:41 AM CST (2/18)
Length of Visible Light 11h 38m
Length of Day
10h 40m
Waning Gibbous, 87% of the Moon is Illuminated
Feb 18
Waning Gibbous
Feb 22
Last Quarter
Mar 1
New
Mar 8
First Quarter
Mar 16
Full

Hourly Weather History & Observations

Time (CST) Temp. Windchill Dew Point Humidity Pressure Visibility Wind Dir Wind Speed Gust Speed Precip Events Conditions
12:15 AM 33.8 °F 23.9 °F 21.2 °F 60% 29.73 in 10.0 mi South 15.0 mph - N/A   Clear
12:35 AM 33.8 °F 24.8 °F 21.2 °F 60% 29.72 in 10.0 mi South 12.7 mph - N/A   Clear
12:55 AM 33.8 °F 24.8 °F 19.4 °F 56% 29.71 in 10.0 mi South 12.7 mph - N/A   Clear
1:15 AM 33.8 °F 24.8 °F 19.4 °F 56% 29.69 in 10.0 mi SSE 12.7 mph - N/A   Clear
1:35 AM 33.8 °F 23.9 °F 17.6 °F 52% 29.67 in 10.0 mi SSE 15.0 mph - N/A   Clear
1:55 AM 32.0 °F 21.2 °F 17.6 °F 55% 29.66 in 10.0 mi South 16.1 mph - N/A   Clear
2:15 AM 30.2 °F 19.3 °F 17.6 °F 60% 29.65 in 10.0 mi South 15.0 mph - N/A   Clear
2:35 AM 30.2 °F 19.8 °F 17.6 °F 60% 29.64 in 10.0 mi South 13.8 mph - N/A   Clear
2:55 AM 28.4 °F 17.5 °F 17.6 °F 64% 29.63 in 10.0 mi South 13.8 mph - N/A   Clear
3:15 AM 28.4 °F 18.0 °F 17.6 °F 64% 29.61 in 10.0 mi South 12.7 mph - N/A   Clear
3:35 AM 28.4 °F 18.5 °F 17.6 °F 64% 29.60 in 10.0 mi SSW 11.5 mph - N/A   Clear
3:55 AM 28.4 °F 18.0 °F 17.6 °F 64% 29.60 in 10.0 mi SSW 12.7 mph - N/A   Clear
4:15 AM 28.4 °F 17.0 °F 17.6 °F 64% 29.59 in 10.0 mi SSW 15.0 mph - N/A   Clear
4:35 AM 28.4 °F 17.0 °F 17.6 °F 64% 29.58 in 10.0 mi SSW 15.0 mph - N/A   Clear
4:55 AM 28.4 °F 17.5 °F 17.6 °F 64% 29.58 in 10.0 mi SSW 13.8 mph - N/A   Clear
5:15 AM 28.4 °F 18.5 °F 17.6 °F 64% 29.57 in 10.0 mi SSW 11.5 mph - N/A   Clear
5:35 AM 28.4 °F 17.5 °F 17.6 °F 64% 29.57 in 10.0 mi SSW 13.8 mph - N/A   Clear
5:55 AM 28.4 °F 17.5 °F 17.6 °F 64% 29.55 in 10.0 mi SSW 13.8 mph - N/A   Clear
6:15 AM 28.4 °F 17.5 °F 17.6 °F 64% 29.55 in 10.0 mi SSW 13.8 mph - N/A   Clear
6:35 AM 28.4 °F 17.0 °F 17.6 °F 64% 29.55 in 10.0 mi SW 15.0 mph - N/A   Clear
6:55 AM 30.2 °F 18.9 °F 17.6 °F 60% 29.55 in 10.0 mi SW 16.1 mph - N/A   Clear
7:15 AM 30.2 °F 19.8 °F 17.6 °F 60% 29.55 in 10.0 mi SW 13.8 mph - N/A   Clear
7:35 AM 30.2 °F 20.2 °F 17.6 °F 60% 29.55 in 10.0 mi SSW 12.7 mph - N/A   Clear
7:55 AM 30.2 °F 20.2 °F 17.6 °F 60% 29.55 in 10.0 mi SW 12.7 mph - N/A   Clear
8:15 AM 30.2 °F 19.8 °F 19.4 °F 64% 29.55 in 10.0 mi SW 13.8 mph - N/A   Clear
8:35 AM 32.0 °F 21.6 °F 19.4 °F 60% 29.55 in 10.0 mi SW 15.0 mph - N/A   Clear
8:55 AM 33.8 °F 23.9 °F 19.4 °F 56% 29.55 in 10.0 mi WSW 15.0 mph - N/A   Clear
9:15 AM 33.8 °F 23.9 °F 19.4 °F 56% 29.55 in 10.0 mi SW 15.0 mph - N/A   Clear
9:35 AM 33.8 °F 23.9 °F 19.4 °F 56% 29.56 in 10.0 mi WSW 15.0 mph - N/A   Clear
9:55 AM 33.8 °F 23.9 °F 21.2 °F 60% 29.57 in 10.0 mi WSW 15.0 mph - N/A   Clear
10:15 AM 33.8 °F 25.3 °F 21.2 °F 60% 29.58 in 10.0 mi WSW 11.5 mph - N/A   Clear
10:35 AM 33.8 °F 24.8 °F 21.2 °F 60% 29.58 in 10.0 mi West 12.7 mph - N/A   Clear
10:55 AM 33.8 °F 24.3 °F 23.0 °F 65% 29.58 in 10.0 mi WSW 13.8 mph - N/A   Clear
11:15 AM 35.6 °F 27.1 °F 23.0 °F 60% 29.58 in 10.0 mi WSW 12.7 mph - N/A   Clear
11:35 AM 35.6 °F 25.5 °F 24.8 °F 65% 29.58 in 10.0 mi West 17.3 mph - N/A   Clear
11:55 AM 35.6 °F 29.2 °F 24.8 °F 65% 29.59 in 10.0 mi West 8.1 mph - N/A   Clear
12:15 PM 37.4 °F 30.3 °F 24.8 °F 60% 29.60 in 10.0 mi WNW 10.4 mph - N/A   Clear
12:35 PM 37.4 °F 30.3 °F 24.8 °F 60% 29.61 in 10.0 mi NW 10.4 mph - N/A   Clear
12:55 PM 37.4 °F 30.3 °F 24.8 °F 60% 29.61 in 10.0 mi West 10.4 mph - N/A   Clear
1:15 PM 35.6 °F 29.2 °F 24.8 °F 65% 29.61 in 10.0 mi WNW 8.1 mph - N/A   Clear
1:35 PM 37.4 °F 31.4 °F 26.6 °F 65% 29.60 in 10.0 mi NW 8.1 mph - N/A   Clear
1:55 PM 37.4 °F 32.1 °F 26.6 °F 65% 29.61 in 10.0 mi WNW 6.9 mph - N/A   Clear
2:15 PM 37.4 °F 30.3 °F 26.6 °F 65% 29.62 in 10.0 mi WNW 10.4 mph - N/A   Clear
2:35 PM 37.4 °F 29.8 °F 26.6 °F 65% 29.63 in 10.0 mi WNW 11.5 mph - N/A   Clear
2:55 PM 37.4 °F 29.3 °F 26.6 °F 65% 29.64 in 10.0 mi West 12.7 mph - N/A   Clear
3:15 PM 37.4 °F 29.3 °F 26.6 °F 65% 29.65 in 10.0 mi West 12.7 mph - N/A   Clear
3:35 PM 35.6 °F 26.2 °F 26.6 °F 70% 29.66 in 10.0 mi West 15.0 mph - N/A   Clear
3:55 PM 37.4 °F 26.9 °F 26.6 °F 65% 29.68 in 10.0 mi West 20.7 mph - N/A   Clear
4:15 PM 37.4 °F 27.5 °F 26.6 °F 65% 29.70 in 10.0 mi West 18.4 mph - N/A   Partly Cloudy
4:35 PM 37.4 °F 28.9 °F 26.6 °F 65% 29.71 in 10.0 mi WNW 13.8 mph - N/A   Partly Cloudy
4:55 PM 37.4 °F 28.9 °F 28.4 °F 70% 29.71 in 10.0 mi West 13.8 mph - N/A   Mostly Cloudy
5:15 PM 35.6 °F 29.2 °F 28.4 °F 75% 29.72 in 10.0 mi West 8.1 mph - N/A   Scattered Clouds
5:35 PM 37.4 °F 30.3 °F 28.4 °F 70% 29.73 in 10.0 mi WNW 10.4 mph - N/A   Partly Cloudy
5:55 PM 35.6 °F 26.2 °F 28.4 °F 75% 29.75 in 10.0 mi West 15.0 mph - N/A   Mostly Cloudy
6:15 PM 35.6 °F 25.5 °F 28.4 °F 75% 29.75 in 10.0 mi WNW 17.3 mph - N/A   Partly Cloudy
6:35 PM 35.6 °F 25.9 °F 28.4 °F 75% 29.77 in 10.0 mi WNW 16.1 mph - N/A   Scattered Clouds
6:55 PM 35.6 °F 25.9 °F 28.4 °F 75% 29.78 in 10.0 mi WNW 16.1 mph - N/A   Mostly Cloudy
7:15 PM 35.6 °F 25.9 °F 28.4 °F 75% 29.79 in 10.0 mi WNW 16.1 mph - N/A   Mostly Cloudy
7:35 PM 35.6 °F 27.1 °F 28.4 °F 75% 29.79 in 10.0 mi West 12.7 mph - N/A   Partly Cloudy
7:55 PM 35.6 °F 27.1 °F 28.4 °F 75% 29.80 in 10.0 mi West 12.7 mph - N/A   Partly Cloudy
8:15 PM 35.6 °F 25.9 °F 28.4 °F 75% 29.81 in 10.0 mi West 16.1 mph - N/A   Scattered Clouds
8:35 PM 35.6 °F 25.9 °F 26.6 °F 70% 29.82 in 10.0 mi WNW 16.1 mph - N/A   Partly Cloudy
8:55 PM 33.8 °F 24.3 °F 26.6 °F 75% 29.83 in 10.0 mi WNW 13.8 mph - N/A   Clear
9:15 PM 33.8 °F 24.3 °F 26.6 °F 75% 29.83 in 10.0 mi WNW 13.8 mph - N/A   Clear
9:35 PM 33.8 °F 25.3 °F 26.6 °F 75% 29.83 in 10.0 mi WNW 11.5 mph - N/A   Clear
9:55 PM 33.8 °F 24.3 °F 26.6 °F 75% 29.84 in 10.0 mi West 13.8 mph - N/A   Clear
10:15 PM 32.0 °F 23.0 °F 24.8 °F 75% 29.84 in 10.0 mi WNW 11.5 mph - N/A   Clear
10:35 PM 32.0 °F 23.0 °F 24.8 °F 75% 29.83 in 10.0 mi WNW 11.5 mph - N/A   Clear
10:55 PM 32.0 °F 22.1 °F 24.8 °F 75% 29.84 in 10.0 mi West 13.8 mph - N/A   Clear
11:15 PM 30.2 °F 20.8 °F 24.8 °F 80% 29.84 in 10.0 mi West 11.5 mph - N/A   Clear
11:35 PM 30.2 °F 21.3 °F 24.8 °F 80% 29.84 in 10.0 mi West 10.4 mph - N/A   Clear
11:55 PM 30.2 °F 23.4 °F 23.0 °F 75% 29.84 in 10.0 mi West 6.9 mph - N/A   Clear